THORAD DELTA 1 DEB

Satellite information

Favourite Embed

Satellite Type and Status

DEBRISIN ORBIT

Key statistics

Satellite THORAD DELTA 1 DEB at a glance.

Uptime

18437

Days in orbit

Revolutions

≈ 12.5

Per day

Orbit

SSO

Sun Synchronous Orbit

Inclination

101.5

Latest

Satellite identification and parameters

Extended collection of information and parameters for THORAD DELTA 1 DEB.

Object identification

Identified? True

Debris? True

Object name: THORAD DELTA 1 DEB

International designator: 1974-089EE

Object number (NORAD): 9987

Object ID (CCSDS): 9987

Country: UNITED STATES OF AMERICA (US)

Current information (Y/N): Y

RCS size: SMALL

Orbital parameters

Period: 115.045 minutes

Inclination: 101.462 deg

SMA: 7835.579 km

Apoapsis: 1538.938 km

Periapsis: 1375.95 km

RAAN: 271.9102 deg

Eccentricy: 0.0104005

Argument of periapsis: 174.1332 deg

Mean anomaly: 215.9853 deg

Mean motion: 12.51688164 rev/day

Mean motion (dot): 0.00000607 rev/day2

B* drag term: 0.0040938 1/REarth

Two-line elements (TLE)

Creation date: May 8, 2025, 3:01 a.m.

Reference frame: TEME

Reference center: EARTH

Epoch: May 7, 2025, 7:57 a.m. UTC

TLE line 0: 0 THORAD DELTA 1 DEB

TLE line 1: 1 09987U 74089EE 25127.33132797 .00000607 00000-0 40938-2 0 9992

TLE line 2: 2 09987 101.4620 271.9102 0104005 174.1332 215.9853 12.51688164298567

Live tracking on map

Real-time ground track for satellite THORAD DELTA 1 DEB.

In-orbit conjunctions

A list of the most updated potential collisions computed for object THORAD DELTA 1 DEB.

Target Orbit TCA Probability of collision Miss distance Type
COSMOS 976 LEO 2024-11-06 16:22:54 0.0001748828 880.0 (m) PAYLOAD
COSMOS 566 LEO 2024-07-15 05:29:36 0.001568301 33.0 (m) PAYLOAD

Associated space launch

Meteorological satellite using radiometric imaging

THORAD DELTA 1 DEB was lifted into orbit during the mission ‘Delta 2310 | NOAA 4’, on board a Delta 2310 space rocket.

The launch took place on Nov. 15, 1974, 5:11 p.m. from Space Launch Complex 2W.

For more information about the launch, click the button.

Launch to space Delta 2310 | NOAA 4
Delta 2310 | NOAA 4

Agency: N/A

Status: Launch Successful

Launch date: Nov. 15, 1974, 5:11 p.m. UTC

Rocket: Delta 2310

Launch pad: Space Launch Complex 2W

Location: Vandenberg SFB, CA, USA

...

Latest news about this satellite

There are no fresh news available about this satellite. Check back as we update our databases every day.


Newsletter sign-up

Weekly statistics, charts and insights to help you stay on top of the space industry.